Starlink 3135

operational
NORAD ID: 49424 Int'l Des: 2021-104 Owner: SPXS Country: US Constellation: starlink
LEOCIRCULAR

Starlink 3135について

説明を読み込み中...

リアルタイム位置

3D地球を読み込み中...

次回通過

高度履歴

Altitude vs Time

uPlot chart will show altitude changes over time

軌道要素

1 49424U 21104S 25303.85930821 -.00000326 00000-0 -23809-5 0 9990
2 49424 53.2167 91.9493 0001372 80.7611 279.3536 15.08834122219023
Epoch: Oct 30, 2025 • Age: 21 hours

現在のステータス

高度 543.1 km
速度 7.60 km/s
衛星直下点 42.33°N, 82.43°W
打ち上げ日 Nov 13, 2021
運用期間 3.9 years
タイプ internet

技術仕様

分類 Payload
質量 290.00 kg
乾燥質量 270.00 kg
総質量 290.00 kg
長さ 0.20 m
直径 2.80 m
スパン 9.00 m
形状 Box + pan
製造者 SPXS
バスタイプ Starlink
フェーズステータス In Orbit
所有者/国 SPXS/US

大規模コンステレーション

Loading constellations...